GW3202 Weather Reports


time (UTC)temp
F
wind
direction
speed
knots
gust
knots
rain 1hr
in
rain 24hr
in
rain mn
in
humidity
%
barometer
mb
20260831212005 78 203 2.6 7.8 0.00 0.00 0.00 61 1020.0
20260831211005 78 64 2.6 8.7 0.00 0.00 0.00 61 1020.0
20260831210005 78 170 1.7 11.3 0.00 0.00 0.00 59 1020.2
20260831205008 78 145 8.7 11.3 0.00 0.00 0.00 58 1020.4
20260831204004 79 155 6.1 8.7 0.00 0.00 0.00 57 1020.4
20260831203004 80 163 6.1 11.3 0.00 0.00 0.00 55 1020.6
20260831202004 80 153 4.3 11.3 0.00 0.00 0.00 54 1020.5
20260831201004 80 174 4.3 10.4 0.00 0.00 0.00 52 1020.9
20260831200004 80 154 7.0 10.4 0.00 0.00 0.00 50 1020.9
20260831195006 80 171 4.3 10.4 0.00 0.00 0.00 50 1021.0
20260831194004 79 171 4.3 10.4 0.00 0.00 0.00 52 1021.1
20260831193005 80 95 1.7 7.8 0.00 0.00 0.00 49 1021.3
20260831192004 75 103 1.7 8.7 0.00 0.00 0.00 51 1021.4
20260831191002 79 139 5.2 7.8 0.00 0.00 0.00 58 1021.6
20260831184004 76 247 3.5 5.2 0.00 0.00 0.00 64 1021.8
20260831183003 76 280 1.7 5.2 0.00 0.00 0.00 64 1022.0
20260831182006 77 169 2.6 6.1 0.00 0.00 0.00 64 1021.8
20260831181002 75 181 0.9 5.2 0.00 0.00 0.00 66 1022.2
20260831180004 75 0 0.0 5.2 0.00 0.00 0.00 66 1022.2
20260831175003 75 337 0.9 5.2 0.00 0.00 0.00 70 1022.5
20260831173002 73 19 2.6 7.8 0.00 0.00 0.00 73 1022.7
20260831172003 73 316 1.7 5.2 0.00 0.00 0.00 72 1022.7
20260831171003 71 354 0.9 4.3 0.00 0.00 0.00 73 1022.9
20260831170003 72 27 0.9 8.7 0.00 0.00 0.00 73 1022.9
20260831164003 71 342 4.3 6.1 0.00 0.00 0.00 74 1022.9
20260831163003 71 346 0.9 6.1 0.00 0.00 0.00 75 1022.9
20260831162002 69 41 2.6 5.2 0.00 0.00 0.00 80 1022.9
20260831161003 71 68 0.9 5.2 0.00 0.00 0.00 80 1023.1
20260831155002 68 47 0.9 6.1 0.00 0.00 0.00 83 1023.4
20260831154004 67 61 1.7 6.1 0.00 0.00 0.00 85 1023.1
20260831153003 68 26 1.7 5.2 0.00 0.00 0.00 86 1023.4
20260831152003 68 2 1.7 4.3 0.00 0.00 0.00 85 1023.4
20260831151003 68 306 0.9 4.3 0.00 0.00 0.00 85 1023.3
20260831150002 67 3 2.6 4.3 0.00 0.00 0.00 85 1023.5
20260831145003 68 343 1.7 4.3 0.00 0.00 0.00 84 1023.2
20260831144002 68 12 1.7 5.2 0.00 0.00 0.00 84 1023.3
20260831143003 68 88 1.7 2.6 0.00 0.00 0.00 82 1023.3
20260831142003 66 112 0.9 1.7 0.00 0.00 0.00 88 1023.4
20260831140003 65 143 1.7 1.7 0.00 0.00 0.00 91 1023.3
20260831134003 65 190 1.7 2.6 0.00 0.00 0.00 91 1023.4
20260831131003 64 195 0.0 1.7 0.00 0.00 0.00 92 1023.0
20260831125003 64 25 0.9 1.7 0.00 0.00 0.00 92 1022.9
20260831124002 64 333 0.0 2.6 0.00 0.00 0.00 92 1022.8
20260831123002 64 85 0.9 4.3 0.00 0.00 0.00 92 1022.7
20260831122003 64 341 0.9 2.6 0.00 0.00 0.00 92 1022.6
20260831121002 64 101 0.9 2.6 0.00 0.00 0.00 93 1022.6
20260831120003 64 113 0.9 1.7 0.00 0.00 0.00 93 1022.5
20260831115003 64 42 0.9 2.6 0.00 0.00 0.00 93 1022.3
20260831113002 63 310 0.9 2.6 0.00 0.00 0.00 93 1022.1
20260831112003 63 195 0.0 1.7 0.00 0.00 0.00 93 1021.9
20260831111003 63 90 0.0 2.6 0.00 0.00 0.00 94 1021.8
20260831110003 63 102 0.0 1.7 0.00 0.00 0.00 94 1021.7
20260831105003 63 120 0.0 1.7 0.00 0.00 0.00 94 1021.6
20260831103003 63 109 0.0 2.6 0.00 0.00 0.00 94 1021.5
20260831101002 63 56 0.0 2.6 0.00 0.00 0.00 94 1021.4
20260831100004 63 124 0.0 1.7 0.00 0.00 0.00 94 1021.5
20260831095002 63 226 0.9 1.7 0.00 0.00 0.00 93 1021.4
20260831094003 63 237 0.0 2.6 0.00 0.00 0.00 93 1021.3
20260831092003 63 82 0.0 2.6 0.00 0.00 0.00 93 1021.4
20260831091002 63 192 0.9 4.3 0.00 0.00 0.00 92 1021.3
20260831090003 64 263 0.0 1.7 0.00 0.00 0.00 92 1021.2
20260831085003 64 11 0.9 1.7 0.00 0.00 0.00 92 1021.1
20260831084003 64 114 0.9 1.7 0.00 0.00 0.00 92 1021.1
20260831083003 64 341 0.9 1.7 0.00 0.00 0.00 92 1021.1
20260831081004 64 325 0.9 4.3 0.00 0.00 0.00 90 1021.3
20260831080003 66 344 1.7 8.7 0.00 0.00 0.00 86 1021.2
20260831075003 67 254 1.7 8.7 0.00 0.00 0.00 83 1021.2
20260831074003 65 291 0.0 1.7 0.00 0.00 0.00 89 1021.4
20260831072003 65 43 0.9 4.3 0.00 0.00 0.00 89 1021.8
20260831071003 65 316 1.7 4.3 0.00 0.00 0.00 88 1021.7
20260831070002 66 352 1.7 5.2 0.00 0.00 0.00 86 1021.8
20260831065003 68 209 0.9 8.7 0.00 0.00 0.00 83 1022.0
20260831064003 68 158 3.5 7.8 0.00 0.00 0.00 83 1022.1
20260831062003 68 152 4.3 14.8 0.00 0.00 0.00 82 1022.0
20260831061003 68 107 2.6 14.8 0.00 0.00 0.00 81 1022.1
20260831060003 68 152 8.7 14.8 0.00 0.00 0.00 77 1022.1
20260831055004 68 128 4.3 15.6 0.00 0.00 0.00 77 1022.1
20260831054004 69 131 7.0 13.9 0.00 0.00 0.00 77 1021.9
20260831053003 69 123 6.1 18.2 0.00 0.00 0.00 79 1021.9
20260831052003 69 148 5.2 13.9 0.00 0.00 0.00 79 1021.9
20260831050003 70 141 7.0 11.3 0.00 0.00 0.00 77 1022.0
20260831045004 70 122 4.3 10.4 0.00 0.00 0.00 77 1021.9
20260831044003 69 142 2.6 8.7 0.00 0.00 0.00 79 1021.9
20260831043003 69 116 7.0 8.7 0.00 0.00 0.00 79 1021.7
20260831042004 69 148 5.2 13.0 0.00 0.00 0.00 79 1021.9
20260831040003 70 128 5.2 10.4 0.00 0.00 0.00 77 1021.7
20260831035005 70 121 4.3 12.2 0.00 0.00 0.00 75 1021.8
20260831034004 70 157 6.1 12.2 0.00 0.00 0.00 75 1021.7
20260831033003 70 146 5.2 11.3 0.00 0.00 0.00 74 1021.6
20260831032004 70 156 4.3 11.3 0.00 0.00 0.00 76 1021.6
20260831030003 69 165 4.3 13.9 0.00 0.00 0.00 85 1021.4
20260831025004 69 156 5.2 12.2 0.00 0.00 0.00 89 1021.2
20260831024003 69 190 4.3 12.2 0.00 0.00 0.00 92 1021.2
20260831023003 70 152 5.2 13.9 0.00 0.00 0.00 94 1020.9
20260831022003 70 125 0.9 8.7 0.00 0.00 0.00 94 1020.8
20260831021004 71 167 1.7 12.2 0.00 0.00 0.00 93 1020.8
20260831015003 72 153 3.5 7.8 0.00 0.00 0.00 89 1020.2
20260831014003 72 132 4.3 8.7 0.00 0.00 0.00 87 1019.7
20260831013004 73 126 6.1 10.4 0.00 0.00 0.00 85 1019.5
20260831012004 73 142 4.3 10.4 0.00 0.00 0.00 84 1019.7
20260831011004 73 174 4.3 10.4 0.00 0.00 0.00 82 1019.5
20260831005003 74 138 7.0 12.2 0.00 0.00 0.00 79 1019.4
20260831004004 75 165 5.2 7.8 0.00 0.00 0.00 78 1019.6
20260831002006 76 177 2.6 10.4 0.00 0.00 0.00 78 1019.2
20260831001004 76 160 4.3 11.3 0.00 0.00 0.00 78 1019.1
20260831000003 77 198 2.6 8.7 0.00 0.00 0.00 74 1019.1
20260830235003 79 158 4.3 7.0 0.00 0.00 0.00 70 1018.8
20260830233003 79 153 5.2 10.4 0.00 0.00 0.00 71 1018.9
20260830231003 79 187 3.5 11.3 0.00 0.00 0.00 69 1018.7
20260830230005 80 167 4.3 11.3 0.00 0.00 0.00 68 1018.6
20260830225003 82 169 4.3 8.7 0.00 0.00 0.00 67 1018.7
20260830224005 81 203 1.7 7.8 0.00 0.00 0.00 63 1018.6
20260830223004 81 132 5.2 8.7 0.00 0.00 0.00 54 1018.7
20260830222003 82 210 2.6 8.7 0.00 0.00 0.00 52 1018.4
20260830221004 82 154 2.6 8.7 0.00 0.00 0.00 51 1018.7
20260830215003 83 255 0.9 7.8 0.00 0.00 0.00 49 1019.1
20260830214003 84 155 1.7 6.1 0.00 0.00 0.00 50 1018.9
20260830213004 81 198 1.7 6.1 0.00 0.00 0.00 52 1019.2